{"data":{"norad_id":64901,"intl_designator":"2025-156C","name":"CO3D 4","alt_names":[],"object_type":"PAYLOAD","status":"ACTIVE","operator":null,"country":"FR","launch_date":"2025-07-26","launch_site_code":"FRGUI","launch_vehicle":null,"mission":null,"orbit_class":"UNKNOWN","rcs_meters":null,"size_class":null,"mass_kg":null,"dimensions":null,"purposes":["earth_obs"],"wikipedia_slug":null,"has_3d_model":false,"image_url":null,"decayed_at":null,"tle_current":{"epoch":"2026-05-25T03:35:43.113984Z","epoch_age_seconds":56005,"freshness":"FRESH","line1":"1 64901U 25156C   26145.14980456  .00004521  00000+0  21178-3 0  9997","line2":"2 64901  97.4325 224.1741 0001365  63.4808 296.6567 15.20212084 46036","mean_motion":15.20212084,"eccentricity":0.0001365,"inclination_deg":97.4325,"raan_deg":224.1741,"arg_perigee_deg":63.4808,"mean_anomaly_deg":296.6567,"bstar":0.00021178,"rev_number":4603,"period_min":94.723625417518,"perigee_km":504.26076987365,"apogee_km":506.13992096895,"semimajor_km":6883.3373454213,"source":"CELESTRAK","updated_at":"2026-05-25T13:38:12.839799Z"}}}